This is the latest recevied weather packets stored in our database for station/object IU1WWE-10. If no packets are shown the sender has not sent any weather packets the latest 10 day(s).
| Time | Temp. | Humidity | Pressure | Rain* | Wind** | Luminosity | Snow |
|---|---|---|---|---|---|---|---|
| 1787820994 | 19.44° C | 78% | 1021.3 hPa | 0 mm | - | - | - |
| 1787820692 | 19.44° C | 80% | 1021.2 hPa | 0 mm | - | - | - |
| 1787820390 | 19.44° C | 79% | 1021.3 hPa | 0 mm | - | - | - |
| 1787820088 | 19.44° C | 82% | 1021.2 hPa | 0 mm | - | - | - |
| 1787819786 | 19.44° C | 82% | 1021.2 hPa | 0 mm | - | - | - |
| 1787819484 | 18.89° C | 84% | 1021.2 hPa | 0 mm | - | - | - |
| 1787819182 | 18.89° C | 82% | 1021.2 hPa | 0 mm | - | - | - |
| 1787818880 | 18.33° C | 83% | 1021.2 hPa | 0 mm | - | - | - |
| 1787818577 | 18.33° C | 86% | 1021.2 hPa | 0 mm | - | - | - |
| 1787818275 | 18.33° C | 86% | 1021.5 hPa | 0 mm | - | - | - |
| 1787817973 | 17.78° C | 87% | 1021.6 hPa | 0 mm | - | - | - |
| 1787817671 | 17.78° C | 87% | 1021.5 hPa | 0 mm | - | - | - |
| 1787817369 | 17.78° C | 87% | 1021.6 hPa | 0 mm | - | - | - |
| 1787817067 | 17.78° C | 87% | 1021.6 hPa | 0 mm | - | - | - |
| 1787816765 | 17.78° C | 88% | 1021.7 hPa | 0 mm | - | - | - |
| 1787816463 | 17.78° C | 88% | 1021.6 hPa | 0 mm | - | - | - |
| 1787816161 | 17.22° C | 89% | 1021.6 hPa | 0 mm | - | - | - |
| 1787815858 | 17.22° C | 89% | 1021.5 hPa | 0 mm | - | - | - |
| 1787815556 | 17.22° C | 90% | 1021.5 hPa | 0 mm | - | - | - |
| 1787815254 | 17.22° C | 88% | 1021.2 hPa | 0 mm | - | - | - |
| 1787814952 | 16.67° C | 89% | 1021.2 hPa | 0 mm | - | - | - |
| 1787814650 | 16.67° C | 90% | 1021.1 hPa | 0 mm | - | - | - |
| 1787814348 | 16.67° C | 90% | 1021.1 hPa | 0 mm | - | - | - |
| 1787814046 | 16.67° C | 90% | 1021.1 hPa | 0 mm | - | - | - |
| 1787813744 | 16.11° C | 89% | 1021.2 hPa | 0 mm | - | - | - |
* Rain since midnight (hover to see other rain measurements)
** Current wind speed in m/s (hover to see current wind gust speed)